Time,TemperatureF,DewpointF,PressureIn,WindDirection,WindDirectionDegrees,WindSpeedMPH,WindSpeedGustMPH,Humidity,HourlyPrecipIn,Conditions,Clouds,dailyrainin,SolarRadiationWatts/m^2,SoftwareType,DateUTC
2013-03-27 00:03:00,41.0,38.0,-100.00,SE,134,0.0,2.0,88,0.00,,,0.00,0.000000,,2013-03-27 04:03:00,
2013-03-27 00:11:00,38.0,36.0,-100.00,NNE,25,0.0,2.0,92,0.00,,,0.00,0.000000,,2013-03-27 04:11:00,
2013-03-27 00:33:00,38.0,36.0,-100.00,NNE,25,0.0,2.0,92,0.00,,,0.00,0.000000,,2013-03-27 04:33:00,
2013-03-27 00:43:00,38.0,36.0,-100.00,NNE,25,0.0,2.0,92,0.00,,,0.00,0.000000,,2013-03-27 04:43:00,
2013-03-27 00:53:00,38.0,36.0,-100.00,NNE,25,0.0,2.0,92,0.00,,,0.00,0.000000,,2013-03-27 04:53:00,
2013-03-27 01:03:00,38.0,36.0,-100.00,NNE,25,0.0,2.0,92,0.00,,,0.00,0.000000,,2013-03-27 05:03:00,
2013-03-27 01:11:00,38.0,36.0,-100.00,NNW,328,1.0,3.0,94,0.00,,,0.00,0.000000,,2013-03-27 05:11:00,
2013-03-27 01:42:00,38.0,36.0,-100.00,NNW,328,1.0,3.0,94,0.00,,,0.00,0.000000,,2013-03-27 05:42:00,
2013-03-27 01:53:00,38.0,36.0,-100.00,NNW,328,1.0,3.0,94,0.00,,,0.00,0.000000,,2013-03-27 05:53:00,
2013-03-27 02:02:00,38.0,36.0,-100.00,NNW,328,1.0,3.0,94,0.00,,,0.00,0.000000,,2013-03-27 06:02:00,
2013-03-27 02:11:00,39.0,37.0,-100.00,NW,323,1.0,3.0,94,0.00,,,0.00,0.000000,,2013-03-27 06:11:00,
2013-03-27 02:32:00,39.0,37.0,-100.00,NW,323,1.0,3.0,94,0.00,,,0.00,0.000000,,2013-03-27 06:32:00,
2013-03-27 02:42:00,39.0,37.0,-100.00,NW,323,1.0,3.0,94,0.00,,,0.00,0.000000,,2013-03-27 06:42:00,
2013-03-27 02:53:00,39.0,37.0,-100.00,NW,323,1.0,3.0,94,0.00,,,0.00,0.000000,,2013-03-27 06:53:00,
2013-03-27 03:02:00,39.0,37.0,-100.00,NW,323,1.0,3.0,94,0.00,,,0.00,0.000000,,2013-03-27 07:02:00,
2013-03-27 03:11:00,38.0,36.0,-100.00,NNW,328,1.0,4.0,93,0.00,,,0.00,0.000000,,2013-03-27 07:11:00,
2013-03-27 03:32:00,38.0,36.0,-100.00,NNW,328,1.0,4.0,93,0.00,,,0.00,0.000000,,2013-03-27 07:32:00,
2013-03-27 03:43:00,38.0,36.0,-100.00,NNW,328,1.0,4.0,93,0.00,,,0.00,0.000000,,2013-03-27 07:43:00,
2013-03-27 03:54:00,38.0,36.0,-100.00,NNW,328,1.0,4.0,93,0.00,,,0.00,0.000000,,2013-03-27 07:54:00,
2013-03-27 04:02:00,38.0,36.0,-100.00,NNW,328,1.0,4.0,93,0.00,,,0.00,0.000000,,2013-03-27 08:02:00,
2013-03-27 04:11:00,37.0,35.0,-100.00,North,350,1.0,3.0,93,0.00,,,0.00,0.000000,,2013-03-27 08:11:00,
2013-03-27 04:32:00,37.0,35.0,-100.00,North,350,1.0,3.0,93,0.00,,,0.00,0.000000,,2013-03-27 08:32:00,
2013-03-27 04:43:00,37.0,35.0,-100.00,North,350,1.0,3.0,93,0.00,,,0.00,0.000000,,2013-03-27 08:43:00,
2013-03-27 04:52:00,37.0,35.0,-100.00,North,350,1.0,3.0,93,0.00,,,0.00,0.000000,,2013-03-27 08:52:00,
2013-03-27 05:02:00,37.0,35.0,-100.00,North,350,1.0,3.0,93,0.00,,,0.00,0.000000,,2013-03-27 09:02:00,
2013-03-27 05:11:00,35.0,33.0,-100.00,SSW,203,0.0,3.0,93,0.00,,,0.00,0.000000,,2013-03-27 09:11:00,
2013-03-27 05:42:00,35.0,33.0,-100.00,SSW,203,0.0,3.0,93,0.00,,,0.00,0.000000,,2013-03-27 09:42:00,
2013-03-27 05:52:00,35.0,33.0,-100.00,SSW,203,0.0,3.0,93,0.00,,,0.00,0.000000,,2013-03-27 09:52:00,
2013-03-27 06:03:00,35.0,33.0,-100.00,SSW,203,0.0,3.0,93,0.00,,,0.00,0.000000,,2013-03-27 10:03:00,
2013-03-27 06:11:00,35.0,34.0,-100.00,NW,313,0.0,3.0,95,0.00,,,0.00,0.000000,,2013-03-27 10:11:00,
2013-03-27 06:32:00,35.0,34.0,-100.00,NW,313,0.0,3.0,95,0.00,,,0.00,0.000000,,2013-03-27 10:32:00,
2013-03-27 06:42:00,35.0,34.0,-100.00,NW,313,0.0,3.0,95,0.00,,,0.00,0.000000,,2013-03-27 10:42:00,
2013-03-27 06:53:00,35.0,34.0,-100.00,NW,313,0.0,3.0,95,0.00,,,0.00,0.000000,,2013-03-27 10:53:00,
2013-03-27 07:03:00,35.0,34.0,-100.00,NW,313,0.0,3.0,95,0.00,,,0.00,0.000000,,2013-03-27 11:03:00,
2013-03-27 07:11:00,36.0,35.0,-100.00,NNW,332,2.0,5.0,95,0.00,,,0.00,0.000000,,2013-03-27 11:11:00,
2013-03-27 07:32:00,36.0,35.0,-100.00,NNW,332,2.0,5.0,95,0.00,,,0.00,0.000000,,2013-03-27 11:32:00,
2013-03-27 07:42:00,36.0,35.0,-100.00,NNW,332,2.0,5.0,95,0.00,,,0.00,0.000000,,2013-03-27 11:42:00,
2013-03-27 07:53:00,36.0,35.0,-100.00,NNW,332,2.0,5.0,95,0.00,,,0.00,0.000000,,2013-03-27 11:53:00,
2013-03-27 08:02:00,36.0,35.0,-100.00,NNW,332,2.0,5.0,95,0.00,,,0.00,0.000000,,2013-03-27 12:02:00,
2013-03-27 08:11:00,38.0,36.0,-100.00,NNW,327,2.0,4.0,94,0.00,,,0.00,33.000000,,2013-03-27 12:11:00,
2013-03-27 08:32:00,38.0,36.0,-100.00,NNW,327,2.0,4.0,94,0.00,,,0.00,33.000000,,2013-03-27 12:32:00,
2013-03-27 08:43:00,38.0,36.0,-100.00,NNW,327,2.0,4.0,94,0.00,,,0.00,33.000000,,2013-03-27 12:43:00,
2013-03-27 08:52:00,38.0,36.0,-100.00,NNW,327,2.0,4.0,94,0.00,,,0.00,33.000000,,2013-03-27 12:52:00,
2013-03-27 09:02:00,38.0,36.0,-100.00,NNW,327,2.0,4.0,94,0.00,,,0.00,33.000000,,2013-03-27 13:02:00,
2013-03-27 09:11:00,50.0,34.0,-100.00,North,359,5.0,11.0,55,0.00,,,0.00,244.000000,,2013-03-27 13:11:00,
2013-03-27 09:42:00,50.0,34.0,-100.00,North,359,5.0,11.0,55,0.00,,,0.00,244.000000,,2013-03-27 13:42:00,
2013-03-27 09:53:00,50.0,34.0,-100.00,North,359,5.0,11.0,55,0.00,,,0.00,244.000000,,2013-03-27 13:53:00,
2013-03-27 10:02:00,50.0,34.0,-100.00,North,359,5.0,11.0,55,0.00,,,0.00,244.000000,,2013-03-27 14:02:00,
2013-03-27 10:11:00,56.0,32.0,-100.00,North,352,5.0,16.0,40,0.00,,,0.00,456.000000,,2013-03-27 14:11:00,
2013-03-27 10:42:00,56.0,32.0,-100.00,North,352,5.0,16.0,40,0.00,,,0.00,456.000000,,2013-03-27 14:42:00,
2013-03-27 10:52:00,56.0,32.0,-100.00,North,352,5.0,16.0,40,0.00,,,0.00,456.000000,,2013-03-27 14:52:00,
2013-03-27 11:03:00,56.0,32.0,-100.00,North,352,5.0,16.0,40,0.00,,,0.00,456.000000,,2013-03-27 15:03:00,
2013-03-27 11:11:00,59.0,31.0,-100.00,NNW,339,6.0,11.0,34,0.00,,,0.00,648.000000,,2013-03-27 15:11:00,
2013-03-27 11:33:00,59.0,31.0,-100.00,NNW,339,6.0,11.0,34,0.00,,,0.00,648.000000,,2013-03-27 15:33:00,
2013-03-27 11:43:00,59.0,31.0,-100.00,NNW,339,6.0,11.0,34,0.00,,,0.00,648.000000,,2013-03-27 15:43:00,
2013-03-27 11:53:00,59.0,31.0,-100.00,NNW,339,6.0,11.0,34,0.00,,,0.00,648.000000,,2013-03-27 15:53:00,
2013-03-27 12:03:00,59.0,31.0,-100.00,NNW,339,6.0,11.0,34,0.00,,,0.00,648.000000,,2013-03-27 16:03:00,
2013-03-27 14:11:00,67.0,30.0,-100.00,NNW,345,4.0,10.0,25,-99.99,,,-99.99,910.000000,,2013-03-27 18:11:00,
2013-03-27 14:33:00,67.0,30.0,-100.00,NNW,345,4.0,10.0,25,-99.99,,,-99.99,910.000000,,2013-03-27 18:33:00,
2013-03-27 14:42:00,67.0,30.0,-100.00,NNW,345,4.0,10.0,25,-99.99,,,-99.99,910.000000,,2013-03-27 18:42:00,
2013-03-27 14:53:00,67.0,30.0,-100.00,NNW,345,4.0,10.0,25,-99.99,,,-99.99,910.000000,,2013-03-27 18:53:00,
2013-03-27 15:03:00,67.0,30.0,-100.00,NNW,345,4.0,10.0,25,-99.99,,,-99.99,910.000000,,2013-03-27 19:03:00,
2013-03-27 15:11:00,69.0,31.0,-100.00,NW,325,4.0,9.0,24,0.00,,,0.00,864.000000,,2013-03-27 19:11:00,
2013-03-27 15:42:00,69.0,31.0,-100.00,NW,325,4.0,9.0,24,0.00,,,0.00,864.000000,,2013-03-27 19:42:00,
2013-03-27 15:52:00,69.0,31.0,-100.00,NW,325,4.0,9.0,24,0.00,,,0.00,864.000000,,2013-03-27 19:52:00,
2013-03-27 16:03:00,69.0,31.0,-100.00,NW,325,4.0,9.0,24,0.00,,,0.00,864.000000,,2013-03-27 20:03:00,
2013-03-27 16:11:00,68.0,30.0,-100.00,NNE,20,4.0,10.0,24,0.00,,,0.00,753.000000,,2013-03-27 20:11:00,
2013-03-27 16:43:00,68.0,30.0,-100.00,NNE,20,4.0,10.0,24,0.00,,,0.00,753.000000,,2013-03-27 20:43:00,
2013-03-27 16:52:00,68.0,30.0,-100.00,NNE,20,4.0,10.0,24,0.00,,,0.00,753.000000,,2013-03-27 20:52:00,
2013-03-27 17:02:00,68.0,30.0,-100.00,NNE,20,4.0,10.0,24,0.00,,,0.00,753.000000,,2013-03-27 21:02:00,
2013-03-27 17:11:00,69.0,30.0,-100.00,NE,38,3.0,9.0,23,0.00,,,0.00,589.000000,,2013-03-27 21:11:00,
2013-03-27 17:33:00,69.0,30.0,-100.00,NE,38,3.0,9.0,23,0.00,,,0.00,589.000000,,2013-03-27 21:33:00,
2013-03-27 17:44:00,69.0,30.0,-100.00,NE,38,3.0,9.0,23,0.00,,,0.00,589.000000,,2013-03-27 21:44:00,
2013-03-27 17:52:00,69.0,30.0,-100.00,NE,38,3.0,9.0,23,0.00,,,0.00,589.000000,,2013-03-27 21:52:00,
2013-03-27 18:03:00,69.0,30.0,-100.00,NE,38,3.0,9.0,23,0.00,,,0.00,589.000000,,2013-03-27 22:03:00,
2013-03-27 18:11:00,68.0,30.0,-100.00,NNE,15,4.0,7.0,24,0.00,,,0.00,387.000000,,2013-03-27 22:11:00,
2013-03-27 18:42:00,68.0,30.0,-100.00,NNE,15,4.0,7.0,24,0.00,,,0.00,387.000000,,2013-03-27 22:42:00,
2013-03-27 18:53:00,68.0,30.0,-100.00,NNE,15,4.0,7.0,24,0.00,,,0.00,387.000000,,2013-03-27 22:53:00,
2013-03-27 19:03:00,68.0,30.0,-100.00,NNE,15,4.0,7.0,24,0.00,,,0.00,387.000000,,2013-03-27 23:03:00,
2013-03-27 19:11:00,60.0,40.0,-100.00,West,279,3.0,10.0,47,0.00,,,0.00,138.000000,,2013-03-27 23:11:00,
2013-03-27 19:43:00,60.0,40.0,-100.00,West,279,3.0,10.0,47,0.00,,,0.00,138.000000,,2013-03-27 23:43:00,
2013-03-27 19:52:00,60.0,40.0,-100.00,West,279,3.0,10.0,47,0.00,,,0.00,138.000000,,2013-03-27 23:52:00,
2013-03-27 20:02:00,60.0,40.0,-100.00,West,279,3.0,10.0,47,0.00,,,0.00,138.000000,,2013-03-28 00:02:00,